WD5EAA Weather Reports


time (UTC)temp
F
wind
direction
speed
knots
gust
knots
rain 1hr
in
rain 24hr
in
rain mn
in
humidity
%
barometer
mb
20260505041549 48 291 6.1 9.6 0.00 0.00 0.00 76 1012.8
20260505041018 49 13 6.1 9.6 0.00 0.00 0.00 73 1012.5
20260505040520 49 351 6.1 9.6 0.00 0.00 0.00 72 1012.4
20260505040043 49 9 7.0 9.6 0.00 0.00 0.00 71 1012.3
20260505035517 49 10 7.0 9.6 0.00 0.00 0.00 70 1012.2
20260505035018 49 32 6.1 9.6 0.00 0.00 0.00 70 1012.0
20260505034534 49 34 7.8 10.4 0.00 0.00 0.00 70 1011.9
20260505034020 49 34 6.1 10.4 0.00 0.00 0.00 71 1012.0
20260505033517 49 23 7.0 9.6 0.00 0.00 0.00 71 1011.9
20260505033032 49 23 4.3 7.0 0.00 0.00 0.00 72 1011.7
20260505032521 49 17 3.5 6.1 0.00 0.00 0.00 72 1011.6
20260505032017 49 360 3.5 7.0 0.00 0.00 0.00 71 1011.6
20260505031538 49 9 4.3 7.8 0.00 0.00 0.00 71 1011.6
20260505031017 49 26 4.3 7.8 0.00 0.00 0.00 70 1011.4
20260505030518 49 26 6.1 7.8 0.00 0.00 0.00 70 1011.4
20260505030040 49 24 4.3 7.8 0.00 0.00 0.00 70 1011.3
20260505025518 49 15 5.2 7.8 0.00 0.00 0.00 70 1011.3
20260505025112 49 17 4.3 7.0 0.00 0.00 0.00 70 1011.2
20260505024532 50 360 4.3 7.0 0.00 0.00 0.00 70 1011.4
20260505024015 50 323 1.7 7.0 0.00 0.00 0.00 69 1011.4
20260505023515 50 343 3.5 7.0 0.00 0.00 0.00 68 1011.3
20260505023039 50 338 3.5 5.2 0.00 0.00 0.00 66 1011.2
20260505022515 50 338 2.6 5.2 0.00 0.00 0.00 66 1011.2
20260505022017 50 350 2.6 5.2 0.00 0.00 0.00 66 1011.0
20260505021530 50 336 3.5 6.1 0.00 0.00 0.00 66 1011.0
20260505021015 50 360 2.6 6.1 0.00 0.00 0.00 66 1010.9
20260505020515 50 360 2.6 5.2 0.00 0.00 0.00 67 1010.9
20260505020036 50 346 1.7 7.0 0.00 0.00 0.00 69 1011.0
20260505015517 50 350 3.5 7.0 0.00 0.00 0.00 68 1010.8
20260505015016 50 343 2.6 7.0 0.00 0.00 0.00 68 1010.6
20260505014534 50 319 3.5 10.4 0.00 0.00 0.00 67 1010.7
20260505014015 51 325 3.5 15.6 0.00 0.00 0.00 65 1010.8
20260505013517 51 335 7.8 15.6 0.00 0.00 0.00 64 1010.9
20260505013036 50 9 11.3 19.1 0.00 0.00 0.00 66 1010.9
20260505012516 50 13 12.2 20.9 0.00 0.00 0.00 68 1010.8
20260505012016 51 352 15.6 20.9 0.00 0.00 0.00 66 1010.7
20260505011533 52 15 13.9 20.0 0.00 0.00 0.00 62 1010.6
20260505011019 53 22 13.9 20.0 0.00 0.00 0.00 60 1010.5
20260505010515 54 31 7.0 13.0 0.00 0.00 0.00 58 1010.4
20260505010030 54 36 6.1 14.8 0.00 0.00 0.00 55 1010.4
20260505005515 54 28 10.4 16.5 0.00 0.00 0.00 53 1010.3
20260505005016 55 33 13.0 20.0 0.00 0.00 0.00 52 1010.3
20260505004537 55 46 13.9 20.9 0.00 0.00 0.00 51 1010.3
20260505004016 57 59 15.6 20.9 0.00 0.00 0.00 46 1010.2
20260505003515 57 38 13.0 16.5 0.00 0.00 0.00 42 1010.0
20260505003030 57 32 11.3 16.5 0.00 0.00 0.00 41 1010.0
20260505002516 58 17 11.3 19.1 0.00 0.00 0.00 41 1009.9
20260505002015 58 350 13.0 20.0 0.00 0.00 0.00 41 1009.9
20260505001531 58 360 15.6 20.0 0.00 0.00 0.00 41 1009.8
20260505001014 59 352 15.6 20.0 0.00 0.00 0.00 39 1009.7
20260505000516 60 360 14.8 20.9 0.00 0.00 0.00 38 1009.8
20260505000039 60 21 15.6 20.9 0.00 0.00 0.00 37 1009.7
20260504235516 60 24 15.6 20.9 0.00 0.00 0.00 37 1009.7
20260504235015 60 26 16.5 20.9 0.00 0.00 0.00 37 1009.6
20260504234536 60 19 16.5 22.6 0.00 0.00 0.00 38 1009.6
20260504234015 60 19 13.0 22.6 0.00 0.00 0.00 37 1009.6
20260504233515 60 5 15.6 23.5 0.00 0.00 0.00 37 1009.6
20260504233033 60 11 18.2 24.3 0.00 0.00 0.00 36 1009.4
20260504232516 61 352 17.4 24.3 0.00 0.00 0.00 36 1009.5
20260504232016 61 5 16.5 21.7 0.00 0.00 0.00 36 1009.5
20260504231529 62 9 17.4 21.7 0.00 0.00 0.00 36 1009.4
20260504231015 62 360 15.6 25.2 0.00 0.00 0.00 34 1009.3
20260504230516 62 360 14.8 25.2 0.00 0.00 0.00 35 1009.3
20260504230034 62 30 19.1 26.1 0.00 0.00 0.00 35 1009.1
20260504225514 62 23 20.9 27.8 0.00 0.00 0.00 36 1009.1
20260504225014 61 12 21.7 27.8 0.00 0.00 0.00 36 1009.2
20260504224530 61 17 20.0 29.5 0.00 0.00 0.00 37 1009.1
20260504224016 61 360 22.6 29.5 0.00 0.00 0.00 36 1008.9
20260504223516 61 13 22.6 29.5 0.00 0.00 0.00 36 1009.0
20260504223030 61 30 20.9 29.5 0.00 0.00 0.00 36 1008.9
20260504222518 61 21 22.6 29.5 0.00 0.00 0.00 35 1008.8
20260504222019 62 22 22.6 29.5 0.00 0.00 0.00 34 1008.8
20260504221534 63 9 20.9 26.9 0.00 0.00 0.00 32 1008.7
20260504221015 64 22 17.4 24.3 0.00 0.00 0.00 30 1008.6
20260504220515 64 10 17.4 24.3 0.00 0.00 0.00 30 1008.4
20260504220032 65 360 18.2 24.3 0.00 0.00 0.00 29 1008.3
20260504215515 66 14 17.4 22.6 0.00 0.00 0.00 28 1008.3
20260504215017 66 25 12.2 17.4 0.00 0.00 0.00 25 1008.5
20260504214529 66 22 9.6 18.2 0.00 0.00 0.00 26 1008.7
20260504214015 66 336 12.2 18.2 0.00 0.00 0.00 26 1008.8
20260504213515 66 324 9.6 18.2 0.00 0.00 0.00 26 1009.0
20260504213053 66 351 11.3 16.5 0.00 0.00 0.00 26 1008.9
20260504212516 67 323 9.6 20.9 0.00 0.00 0.00 25 1008.8
20260504212017 66 352 13.9 20.9 0.00 0.00 0.00 25 1008.9
20260504211532 66 350 13.0 20.0 0.00 0.00 0.00 25 1009.0
20260504211016 67 360 13.0 20.0 0.00 0.00 0.00 25 1008.9
20260504210516 67 20 8.7 14.8 0.00 0.00 0.00 24 1008.9
20260504210030 67 13 7.8 13.0 0.00 0.00 0.00 23 1009.0
20260504205516 67 351 6.1 13.0 0.00 0.00 0.00 23 1009.0
20260504205015 67 352 5.2 13.0 0.00 0.00 0.00 23 1009.0
20260504204533 67 338 8.7 13.9 0.00 0.00 0.00 22 1009.0
20260504204015 67 348 6.1 17.4 0.00 0.00 0.00 22 1009.0
20260504203515 67 360 8.7 17.4 0.00 0.00 0.00 22 1009.0
20260504203035 68 271 5.2 15.6 0.00 0.00 0.00 21 1009.0
20260504202514 69 344 8.7 17.4 0.00 0.00 0.00 20 1009.0
20260504202016 70 348 5.2 17.4 0.00 0.00 0.00 20 1008.9
20260504201533 70 333 7.8 17.4 0.00 0.00 0.00 22 1009.0
20260504201018 71 271 8.7 13.9 0.00 0.00 0.00 21 1009.1
20260504200516 69 300 7.0 26.1 0.00 0.00 0.00 24 1009.0
20260504200032 66 254 10.4 26.1 0.00 0.00 0.00 25 1009.1
20260504195515 66 258 13.0 26.9 0.00 0.00 0.00 25 1009.0
20260504195017 66 297 14.8 26.9 0.00 0.00 0.00 24 1009.1
20260504194530 66 267 13.0 20.9 0.00 0.00 0.00 24 1009.1
20260504194018 66 295 8.7 15.6 0.00 0.00 0.00 25 1009.2
20260504193517 67 271 7.8 15.6 0.00 0.00 0.00 23 1009.0
20260504193037 67 276 10.4 16.5 0.00 0.00 0.00 23 1009.2
20260504192513 67 258 9.6 19.1 0.00 0.00 0.00 22 1009.2
20260504192013 67 279 7.8 20.9 0.00 0.00 0.00 21 1009.1
20260504191532 67 281 13.9 20.9 0.00 0.00 0.00 22 1009.0
20260504191017 67 294 8.7 15.6 0.00 0.00 0.00 23 1009.0
20260504190514 67 292 8.7 15.6 0.00 0.00 0.00 23 1009.0
20260504190029 67 280 11.3 15.6 0.00 0.00 0.00 24 1009.0
20260504185519 67 284 10.4 15.6 0.00 0.00 0.00 24 1009.0
20260504185017 67 276 5.2 11.3 0.00 0.00 0.00 22 1009.2
20260504184532 67 284 6.1 11.3 0.00 0.00 0.00 23 1009.2
20260504184013 68 305 7.0 11.3 0.00 0.00 0.00 21 1009.1
20260504183514 69 270 7.0 15.6 0.00 0.00 0.00 23 1009.2
20260504183031 70 312 5.2 15.6 0.00 0.00 0.00 23 1009.4
20260504182519 70 351 7.8 15.6 0.00 0.00 0.00 23 1009.2
20260504182013 70 322 7.8 13.9 0.00 0.00 0.00 21 1009.3
20260504181532 69 311 5.2 13.9 0.00 0.00 0.00 22 1009.4
20260504181016 69 317 2.6 15.6 0.00 0.00 0.00 23 1009.4
20260504180516 69 352 7.0 15.6 0.00 0.00 0.00 23 1009.5
20260504180032 69 310 10.4 15.6 0.00 0.00 0.00 21 1009.5
20260504175515 69 315 5.2 13.9 0.00 0.00 0.00 23 1009.6
20260504175018 69 281 8.7 13.9 0.00 0.00 0.00 22 1009.6
20260504174531 70 340 7.0 13.9 0.00 0.00 0.00 22 1009.7
20260504174017 70 326 5.2 13.0 0.00 0.00 0.00 24 1009.8
20260504173517 69 331 8.7 15.6 0.00 0.00 0.00 22 1009.8
20260504173037 69 360 7.0 15.6 0.00 0.00 0.00 22 1009.8
20260504172517 69 298 9.6 15.6 0.00 0.00 0.00 22 1009.9
20260504172017 69 317 7.8 11.3 0.00 0.00 0.00 22 1009.9
20260504171536 68 288 7.0 16.5 0.00 0.00 0.00 22 1010.0
20260504171018 68 279 9.6 16.5 0.00 0.00 0.00 22 1010.1
20260504170518 69 257 8.7 17.4 0.00 0.00 0.00 24 1010.1
20260504151017 64 265 13.9 18.2 0.00 0.00 0.00 26 1010.8
20260504150518 64 271 13.0 17.4 0.00 0.00 0.00 27 1010.8
20260504141017 57 250 6.1 14.8 0.00 0.00 0.00 38 1010.9
20260504140516 57 231 7.8 15.6 0.00 0.00 0.00 36 1010.9
20260504130517 49 221 7.8 12.2 0.00 0.00 0.00 47 1010.6
20260504110517 45 227 9.6 11.3 0.00 0.00 0.00 53 1010.6
20260504100517 42 242 8.7 10.4 0.00 0.00 0.00 59 1010.9
20260504081535 47 228 6.1 7.8 0.00 0.00 0.00 51 1011.6
20260504081017 47 243 7.0 8.7 0.00 0.00 0.00 50 1011.6
20260504080516 48 253 6.1 8.7 0.00 0.00 0.00 48 1011.6
20260504050512 59 255 10.4 15.6 0.00 0.00 0.00 30 1012.0
20260504045513 59 269 11.3 16.5 0.00 0.00 0.00 29 1012.1
20260504045020 58 267 9.6 16.5 0.00 0.00 0.00 32 1012.2
20260504044540 58 250 13.0 16.5 0.00 0.00 0.00 33 1012.2
20260504044013 56 248 10.4 14.8 0.00 0.00 0.00 36 1012.3
20260504043516 57 233 10.4 14.8 0.00 0.00 0.00 36 1012.4
20260504043035 57 237 10.4 14.8 0.00 0.00 0.00 34 1012.4
20260504042515 58 235 10.4 14.8 0.00 0.00 0.00 33 1012.4